Flag for Brazil

Past Weather in Feira de Santana, Bahia, Brazil — Yesterday and Last 2 Weeks

Now
73 °F

Partly sunny.


Feels Like: 72 °F
Forecast: 84 / 67 °F
Wind: 2 mph from Northeast

Location: Salvador Aeroporto
Current Time: Sep 26, 2020 at 6:55:51 am
Latest Report: Sep 26, 2020 at 6:00 am
Visibility: N/A
Pressure30.01 "Hg
Humidity: 89%
Dew Point: 70 °F
Location of Feira de SantanaLocation

Past Weather in Feira de Santana — Graph

°F

Feira de Santana Temperature Yesterday

Maximum temperature yesterday: 81 °F (at 12:00 pm)
Minimum temperature yesterday: 73 °F (at 5:10 pm)
Average temperature yesterday: 77 °F

High & Low Weather Summary for the Past Weeks

 TemperatureHumidityPressure
High84 °F (Sep 22, 1:00 pm)100% (Sep 22, 12:00 am)30.15 "Hg (Sep 22, 12:00 am)
Low68 °F (Sep 17, 5:00 am)58% (Sep 11, 12:00 pm)29.92 "Hg (Sep 20, 2:00 pm)
Average78 °F76%30.04 "Hg
* Reported Sep 11 5:00 am — Sep 26 5:00 am, Feira de Santana. Weather by CustomWeather, © 2020

Note: Actual official high and low records may vary slightly from our data, if they occured in-between our weather recording intervals... More about our weather records

Feira de Santana Weather History for the Previous 24 Hours

Scroll right to see more
 ConditionsComfort  
Time TempWeatherWind HumidityBarometerVisibility
5:00 am
Sat, Sep 26
77 °FPassing clouds.7 mph79%29.98 "HgN/A
4:00 am77 °FPartly cloudy.6 mph74%29.98 "HgN/A
3:00 am77 °FPartly cloudy.8 mph79%29.98 "HgN/A
2:00 am77 °FPartly cloudy.12 mph79%30.01 "HgN/A
1:00 am77 °FPartly cloudy.9 mph79%30.01 "HgN/A
12:00 am73 °FScattered showers. Overcast.2 mph94%30.04 "Hg5 mi
11:00 pm
Fri, Sep 25
73 °FLight rain. Mostly cloudy.5 mph94%30.07 "Hg5 mi
10:00 pm77 °FPartly cloudy.5 mph79%30.07 "HgN/A
9:00 pm75 °FPassing clouds.6 mph83%30.07 "HgN/A
8:00 pm75 °FScattered showers. Mostly cloudy.12 mph89%30.04 "Hg5 mi
7:00 pm75 °FScattered showers. Overcast.10 mph83%30.04 "Hg5 mi
6:35 pm73 °FLight rain. Fog.6 mph94%30.04 "Hg2 mi
6:00 pm73 °FScattered showers. Overcast.8 mph94%30.04 "HgN/A
5:10 pm73 °FFog.8 mph94%30.01 "Hg3 mi
4:30 pm75 °FRain showers. Mostly cloudy.10 mph89%30.01 "Hg1 mi
4:00 pm75 °FScattered showers. Broken clouds.13 mph83%30.01 "HgN/A
3:00 pm79 °FScattered showers. Broken clouds.10 mph74%30.01 "HgN/A
2:00 pm79 °FScattered showers. Broken clouds.16 mph74%30.04 "HgN/A
1:00 pm81 °FScattered clouds.13 mph70%30.04 "HgN/A
12:00 pm81 °FScattered clouds.10 mph74%30.07 "HgN/A
11:00 am79 °FScattered clouds.13 mph74%30.09 "HgN/A
10:00 am79 °FScattered clouds.12 mph74%30.09 "HgN/A
9:00 am79 °FScattered clouds.12 mph74%30.09 "HgN/A
8:00 am79 °FScattered clouds.10 mph74%30.09 "HgN/A
7:00 am77 °FScattered clouds.12 mph79%30.07 "HgN/A
6:00 am77 °FScattered clouds.8 mph79%30.07 "HgN/A
Weather by CustomWeather, © 2020

See weather overview